Weather in Krasnomikhaylovskoye

Russia / Republic of Kalmykia     46°10′12″N   42°32′13″E
temp.,
°C
wind,
m/s
gust,
m/s
humid.,
%
clouds,
%
prec.,
mm/h
press.,
hPa
HPBL,
m
16 june, wed
wed1600:00+20wnw11770 0.9 100916
03:00+20se11770 0.9 101016
06:00+22e23770 0.0 1010118
09:00+27e34584 0.0 1010704
12:00+30e46451 0.0 10101670
15:00+32ene573911 0.0 10082147
18:00+30e594682 0.0 1007371
21:00+26ene613530 0.0 1007258
17 june, thu
thu1700:00+24e510616 0.1 1006200
03:00+21ene5117374 0.4 1006240
06:00+23ene8156689 0.2 1006578
09:00+26e71058100 2.1 10071131
12:00+28wsw2250100 2.2 1008813
15:00+25w9107199 2.2 1009506
18:00+20wnw111683100 1.8 1012533
21:00+19nw7138996 5.3 1015560
18 june, fri
fri1800:00+18nw5119088 0.2 1015457
03:00+18wnw61189100 0.4 1016345
06:00+18wnw51189100 0.0 1016428
09:00+19nw5689100 0.1 1017486
12:00+21nnw337528 0.1 1017538
15:00+25nnw346314 0.1 1016866
18:00+26wnw446033 0.0 1015732
21:00+20w34804 0.0 101778
19 june, sat
sat1900:00+20n22780 0.0 101732
03:00+21ene512550 0.0 1017260
06:00+21e714540 0.0 1018356
09:00+25e913420 0.0 1018897
12:00+29e1012320 0.0 10181533
15:00+30e913320 0.0 10161960
18:00+29ene815375 0.0 1015604
21:00+25e816390 0.0 1016477
20 june, sun
sun2000:00+23e817370 0.0 1016512
03:00+22ene718420 0.0 1015534
06:00+22e81745100 0.0 1015558
09:00+26e91642100 0.0 1015885
12:00+33e10163224 0.0 10131738
15:00+34ese1015300 0.0 10132021
18:00+31ese915330 0.0 1014741
21:00+26ese817310 0.0 1016550